Location: Anuling
(14.1239°N, 120.8922°E)
Time: 12:22:46
(UTC+00:00)

Cosmos 2218 Rocket - Pass Details

Date: 15 April 2026
Orbit: 955 x 1005 km, 82.9° (Epoch: 11 May)

Event Time Altitude Azimuth Distance (km) Brightness Sun altitude
Exits shadow 11:17:58 26° 103° (ESE) 1,798 4.8 -16.9°
Maximum altitude 11:18:48 27° 90° (E) 1,764 4.8 -17.1°
Drops below altitude 10° 11:23:46 10° 35° (NE) 2,680 6.1 -18.3°
Sets 11:26:38 0° 24° (NNE) 3,624 6.9 -18.9°
